Time,TemperatureF,DewpointF,PressureIn,WindDirection,WindDirectionDegrees,WindSpeedMPH,WindSpeedGustMPH,Humidity,HourlyPrecipIn,Conditions,Clouds,dailyrainin,SoftwareType,DateUTC
2013-03-01 00:00:00,22.5,14.9,30.20,ENE,67,6.0,17.0,72,0.00,,OVC025,0.00,VWS V14.01,2013-03-01 06:00:00,
2013-03-01 00:04:00,22.5,14.9,30.20,ENE,65,3.0,10.0,72,0.00,,OVC021,0.00,VWS V14.01,2013-03-01 06:04:00,
2013-03-01 00:09:00,22.7,15.1,30.20,ENE,62,6.0,18.0,72,0.00,,OVC021,0.00,VWS V14.01,2013-03-01 06:09:00,
2013-03-01 00:14:00,22.9,14.6,30.20,NNE,23,3.0,19.0,70,0.00,,OVC021,0.00,VWS V14.01,2013-03-01 06:14:00,
2013-03-01 00:15:00,22.9,14.3,30.20,ENE,60,10.0,19.0,69,0.00,,OVC025,0.00,VWS V14.01,2013-03-01 06:15:00,
2013-03-01 00:19:00,22.9,14.3,30.20,ENE,68,3.0,15.0,69,0.00,,OVC021,0.00,VWS V14.01,2013-03-01 06:19:00,
2013-03-01 00:24:00,22.9,13.9,30.20,ENE,58,2.0,16.0,68,0.00,,OVC021,0.00,VWS V14.01,2013-03-01 06:24:00,
2013-03-01 00:29:00,22.9,13.9,30.20,NE,35,4.0,19.0,68,0.00,,OVC021,0.00,VWS V14.01,2013-03-01 06:29:00,
2013-03-01 00:30:00,22.9,13.9,30.20,NE,56,17.0,19.0,68,0.00,,OVC025,0.00,VWS V14.01,2013-03-01 06:30:00,
2013-03-01 00:34:00,22.9,14.3,30.20,ENE,59,10.0,17.0,69,0.00,,OVC023,0.00,VWS V14.01,2013-03-01 06:34:00,
2013-03-01 00:39:00,22.9,14.3,30.20,NE,54,0.0,17.0,69,0.00,,OVC023,0.00,VWS V14.01,2013-03-01 06:39:00,
2013-03-01 00:44:00,22.9,14.3,30.20,NE,45,3.0,18.0,69,0.00,,OVC023,0.00,VWS V14.01,2013-03-01 06:44:00,
2013-03-01 00:45:00,22.9,14.3,30.20,ENE,64,2.0,18.0,69,0.00,,OVC025,0.00,VWS V14.01,2013-03-01 06:45:00,
2013-03-01 00:49:00,22.9,14.3,30.20,ENE,69,2.0,12.0,69,0.00,,OVC023,0.00,VWS V14.01,2013-03-01 06:49:00,
2013-03-01 00:54:00,22.7,14.1,30.20,NE,51,4.0,12.0,69,0.00,,OVC023,0.00,VWS V14.01,2013-03-01 06:54:00,
2013-03-01 01:00:00,22.7,14.1,30.20,NE,53,6.0,14.0,69,0.00,,OVC023,0.00,VWS V14.01,2013-03-01 07:00:00,
2013-03-01 01:05:00,22.7,14.1,30.21,NE,55,1.0,9.0,69,0.00,,OVC023,0.00,VWS V14.01,2013-03-01 07:05:00,
2013-03-01 01:10:00,22.7,14.1,30.21,NE,55,10.0,12.0,69,0.00,,OVC023,0.00,VWS V14.01,2013-03-01 07:10:00,
2013-03-01 01:15:00,22.7,14.1,30.21,ENE,66,7.0,12.0,69,0.00,,OVC023,0.00,VWS V14.01,2013-03-01 07:15:00,
2013-03-01 01:20:00,22.7,14.1,30.21,ENE,64,5.0,12.0,69,0.00,,OVC023,0.00,VWS V14.01,2013-03-01 07:20:00,
2013-03-01 01:25:00,22.7,14.1,30.21,NE,54,15.0,15.0,69,0.00,,OVC023,0.00,VWS V14.01,2013-03-01 07:25:00,
2013-03-01 01:30:00,22.7,14.1,30.21,ENE,59,5.0,15.0,69,0.00,,OVC023,0.00,VWS V14.01,2013-03-01 07:30:00,
2013-03-01 01:35:00,22.7,14.1,30.21,ENE,66,0.0,7.0,69,0.00,,OVC025,0.00,VWS V14.01,2013-03-01 07:35:00,
2013-03-01 01:40:00,22.7,14.1,30.21,NE,42,2.0,10.0,69,0.00,,OVC025,0.00,VWS V14.01,2013-03-01 07:40:00,
2013-03-01 01:45:00,22.7,14.1,30.21,ENE,61,8.0,12.0,69,0.00,,OVC025,0.00,VWS V14.01,2013-03-01 07:45:00,
2013-03-01 01:50:00,22.7,14.1,30.22,ENE,59,4.0,9.0,69,0.00,,OVC025,0.00,VWS V14.01,2013-03-01 07:50:00,
2013-03-01 01:55:00,22.7,14.1,30.22,NE,56,3.0,12.0,69,0.00,,OVC025,0.00,VWS V14.01,2013-03-01 07:55:00,
2013-03-01 02:00:00,22.7,14.1,30.22,ENE,62,6.0,12.0,69,0.00,,OVC025,0.00,VWS V14.01,2013-03-01 08:00:00,
2013-03-01 02:01:00,22.7,14.1,30.22,NE,55,1.0,12.0,69,0.00,,OVC025,0.00,VWS V14.01,2013-03-01 08:01:00,
2013-03-01 02:06:00,22.7,14.1,30.22,ENE,71,6.0,13.0,69,0.00,,OVC025,0.00,VWS V14.01,2013-03-01 08:06:00,
2013-03-01 02:11:00,22.7,14.1,30.22,ENE,76,4.0,13.0,69,0.00,,OVC025,0.00,VWS V14.01,2013-03-01 08:11:00,
2013-03-01 02:15:00,22.7,14.1,30.22,ENE,73,11.0,13.0,69,0.00,,OVC025,0.00,VWS V14.01,2013-03-01 08:15:00,
2013-03-01 02:16:00,22.7,14.1,30.22,ENE,75,9.0,13.0,69,0.00,,OVC025,0.00,VWS V14.01,2013-03-01 08:16:00,
2013-03-01 02:21:00,22.7,14.1,30.22,ENE,69,2.0,11.0,69,0.00,,OVC025,0.00,VWS V14.01,2013-03-01 08:21:00,
2013-03-01 02:26:00,22.7,14.1,30.22,ENE,66,6.0,11.0,69,0.00,,OVC025,0.00,VWS V14.01,2013-03-01 08:26:00,
2013-03-01 02:30:00,22.7,13.7,30.22,ENE,72,5.0,13.0,68,0.00,,OVC025,0.00,VWS V14.01,2013-03-01 08:30:00,
2013-03-01 02:31:00,22.7,13.7,30.22,ENE,73,5.0,13.0,68,0.00,,OVC025,0.00,VWS V14.01,2013-03-01 08:31:00,
2013-03-01 02:36:00,22.7,14.1,30.22,ENE,63,0.0,11.0,69,0.00,,OVC025,0.00,VWS V14.01,2013-03-01 08:36:00,
2013-03-01 02:41:00,22.7,14.1,30.22,ENE,57,4.0,11.0,69,0.00,,OVC025,0.00,VWS V14.01,2013-03-01 08:41:00,
2013-03-01 02:45:00,22.7,14.1,30.22,NE,55,3.0,11.0,69,0.00,,OVC025,0.00,VWS V14.01,2013-03-01 08:45:00,
2013-03-01 02:46:00,22.7,13.7,30.22,NE,55,1.0,11.0,68,0.00,,OVC025,0.00,VWS V14.01,2013-03-01 08:46:00,
2013-03-01 02:51:00,22.5,13.6,30.22,NE,54,1.0,6.0,68,0.00,,OVC025,0.00,VWS V14.01,2013-03-01 08:51:00,
2013-03-01 02:56:00,22.7,13.7,30.22,NE,54,4.0,6.0,68,0.00,,OVC025,0.00,VWS V14.01,2013-03-01 08:56:00,
2013-03-01 03:00:00,22.5,13.9,30.22,NE,54,0.0,6.0,69,0.00,,OVC025,0.00,VWS V14.01,2013-03-01 09:00:00,
2013-03-01 03:01:00,22.5,13.9,30.22,NE,54,0.0,6.0,69,0.00,,OVC025,0.00,VWS V14.01,2013-03-01 09:01:00,
2013-03-01 03:06:00,22.5,13.9,30.22,NE,54,0.0,0.0,69,0.00,,OVC025,0.00,VWS V14.01,2013-03-01 09:06:00,
2013-03-01 03:11:00,22.4,13.8,30.22,NE,54,0.0,7.0,69,0.00,,OVC025,0.00,VWS V14.01,2013-03-01 09:11:00,
2013-03-01 03:15:00,22.4,13.8,30.23,NE,56,7.0,7.0,69,0.00,,OVC025,0.00,VWS V14.01,2013-03-01 09:15:00,
2013-03-01 03:17:00,22.4,13.8,30.23,NE,54,0.0,7.0,69,0.00,,OVC025,0.00,VWS V14.01,2013-03-01 09:17:00,
2013-03-01 03:22:00,22.4,13.8,30.23,ENE,58,9.0,9.0,69,0.00,,OVC025,0.00,VWS V14.01,2013-03-01 09:22:00,
2013-03-01 03:27:00,22.4,14.1,30.23,ENE,61,1.0,9.0,70,0.00,,OVC025,0.00,VWS V14.01,2013-03-01 09:27:00,
2013-03-01 03:30:00,22.4,13.8,30.23,NE,52,12.0,13.0,69,0.00,,OVC025,0.00,VWS V14.01,2013-03-01 09:30:00,
2013-03-01 03:32:00,22.4,13.8,30.23,NE,42,9.0,13.0,69,0.00,,OVC025,0.00,VWS V14.01,2013-03-01 09:32:00,
2013-03-01 03:37:00,22.5,13.9,30.23,ENE,65,4.0,12.0,69,0.00,,OVC025,0.00,VWS V14.01,2013-03-01 09:37:00,
2013-03-01 03:42:00,22.5,13.9,30.23,ENE,69,2.0,12.0,69,0.00,,OVC025,0.00,VWS V14.01,2013-03-01 09:42:00,
2013-03-01 03:45:00,22.5,13.9,30.23,NE,52,3.0,12.0,69,0.00,,OVC025,0.00,VWS V14.01,2013-03-01 09:45:00,
2013-03-01 03:47:00,22.5,13.9,30.23,NE,52,5.0,12.0,69,0.00,,OVC025,0.00,VWS V14.01,2013-03-01 09:47:00,
2013-03-01 03:52:00,22.5,13.6,30.23,NE,52,0.0,5.0,68,0.00,,OVC025,0.00,VWS V14.01,2013-03-01 09:52:00,
2013-03-01 03:57:00,22.5,13.6,30.23,NE,52,0.0,5.0,68,0.00,,OVC025,0.00,VWS V14.01,2013-03-01 09:57:00,
2013-03-01 04:00:00,22.4,13.8,30.23,NE,52,0.0,5.0,69,0.00,,OVC025,0.00,VWS V14.01,2013-03-01 10:00:00,
2013-03-01 04:02:00,22.4,13.8,30.23,NE,52,0.0,5.0,69,0.00,,OVC025,0.00,VWS V14.01,2013-03-01 10:02:00,
2013-03-01 04:07:00,22.5,13.9,30.23,NE,54,2.0,9.0,69,0.00,,OVC025,0.00,VWS V14.01,2013-03-01 10:07:00,
2013-03-01 04:12:00,22.4,13.8,30.23,NE,54,0.0,9.0,69,0.00,,OVC025,0.00,VWS V14.01,2013-03-01 10:12:00,
2013-03-01 04:15:00,22.4,13.8,30.23,NE,54,0.0,9.0,69,0.00,,OVC025,0.00,VWS V14.01,2013-03-01 10:15:00,
2013-03-01 04:17:00,22.4,13.8,30.23,NE,54,0.0,9.0,69,0.00,,OVC025,0.00,VWS V14.01,2013-03-01 10:17:00,
2013-03-01 04:22:00,22.4,13.8,30.23,NE,54,0.0,0.0,69,0.00,,OVC025,0.00,VWS V14.01,2013-03-01 10:22:00,
2013-03-01 04:27:00,22.4,13.8,30.23,NE,54,0.0,0.0,69,0.00,,OVC025,0.00,VWS V14.01,2013-03-01 10:27:00,
2013-03-01 04:30:00,22.4,13.8,30.24,NE,54,0.0,0.0,69,0.00,,OVC025,0.00,VWS V14.01,2013-03-01 10:30:00,
2013-03-01 04:32:00,22.4,13.8,30.24,NE,54,0.0,0.0,69,0.00,,OVC023,0.00,VWS V14.01,2013-03-01 10:32:00,
2013-03-01 04:37:00,22.4,13.8,30.24,NE,54,0.0,0.0,69,0.00,,OVC023,0.00,VWS V14.01,2013-03-01 10:37:00,
2013-03-01 04:42:00,22.2,13.6,30.24,NE,54,0.0,0.0,69,0.00,,OVC023,0.00,VWS V14.01,2013-03-01 10:42:00,
2013-03-01 04:45:00,22.2,13.9,30.24,NE,54,0.0,0.0,70,0.00,,OVC025,0.00,VWS V14.01,2013-03-01 10:45:00,
2013-03-01 04:48:00,22.2,13.9,30.24,NE,54,0.0,0.0,70,0.00,,OVC023,0.00,VWS V14.01,2013-03-01 10:48:00,
2013-03-01 04:53:00,22.2,13.9,30.24,NE,54,0.0,7.0,70,0.00,,OVC023,0.00,VWS V14.01,2013-03-01 10:53:00,
2013-03-01 04:58:00,22.2,13.9,30.24,NE,54,0.0,7.0,70,0.00,,OVC023,0.00,VWS V14.01,2013-03-01 10:58:00,
2013-03-01 05:00:00,22.2,13.9,30.25,NE,54,5.0,7.0,70,0.00,,OVC025,0.00,VWS V14.01,2013-03-01 11:00:00,
2013-03-01 05:03:00,22.2,13.9,30.25,NE,53,3.0,5.0,70,0.00,,OVC023,0.00,VWS V14.01,2013-03-01 11:03:00,
2013-03-01 05:08:00,22.2,13.9,30.25,NNE,30,4.0,6.0,70,0.00,,OVC023,0.00,VWS V14.01,2013-03-01 11:08:00,
2013-03-01 05:13:00,22.4,14.1,30.25,NNE,28,6.0,6.0,70,0.00,,OVC023,0.00,VWS V14.01,2013-03-01 11:13:00,
2013-03-01 05:15:00,22.5,14.2,30.25,NNE,29,4.0,9.0,70,0.00,,OVC025,0.00,VWS V14.01,2013-03-01 11:15:00,
2013-03-01 05:18:00,22.5,14.2,30.25,NNE,29,1.0,4.0,70,0.00,,OVC023,0.00,VWS V14.01,2013-03-01 11:18:00,
2013-03-01 05:23:00,22.5,14.2,30.25,NNE,22,2.0,6.0,70,0.00,,OVC023,0.00,VWS V14.01,2013-03-01 11:23:00,
2013-03-01 05:28:00,22.5,14.2,30.25,NNE,26,6.0,9.0,70,0.00,,OVC023,0.00,VWS V14.01,2013-03-01 11:28:00,
2013-03-01 05:30:00,22.5,14.2,30.25,NE,56,5.0,10.0,70,0.00,,OVC025,0.00,VWS V14.01,2013-03-01 11:30:00,
2013-03-01 05:33:00,22.5,14.2,30.25,NE,40,6.0,6.0,70,0.00,,OVC025,0.00,VWS V14.01,2013-03-01 11:33:00,
2013-03-01 05:38:00,22.5,13.9,30.25,ENE,57,7.0,13.0,69,0.00,,OVC025,0.00,VWS V14.01,2013-03-01 11:38:00,
2013-03-01 05:43:00,22.5,13.9,30.25,NE,41,2.0,13.0,69,0.00,,OVC025,0.00,VWS V14.01,2013-03-01 11:43:00,
2013-03-01 05:45:00,22.5,13.9,30.25,NE,40,4.0,13.0,69,0.00,,OVC025,0.00,VWS V14.01,2013-03-01 11:45:00,
2013-03-01 05:48:00,22.5,13.9,30.25,NE,41,3.0,4.0,69,0.00,,OVC025,0.00,VWS V14.01,2013-03-01 11:48:00,
2013-03-01 05:53:00,22.5,13.9,30.25,NE,36,5.0,6.0,69,0.00,,OVC025,0.00,VWS V14.01,2013-03-01 11:53:00,
2013-03-01 05:59:00,22.5,14.2,30.25,NNE,30,3.0,6.0,70,0.00,,OVC025,0.00,VWS V14.01,2013-03-01 11:59:00,
2013-03-01 06:00:00,22.4,14.1,30.26,NNE,30,0.0,6.0,70,0.00,,OVC025,0.00,VWS V14.01,2013-03-01 12:00:00,
2013-03-01 06:04:00,22.4,14.1,30.26,NNE,30,0.0,0.0,70,0.00,,OVC025,0.00,VWS V14.01,2013-03-01 12:04:00,
2013-03-01 06:09:00,22.4,14.1,30.26,NNE,28,2.0,5.0,70,0.00,,OVC025,0.00,VWS V14.01,2013-03-01 12:09:00,
2013-03-01 06:14:00,22.4,14.1,30.26,NNE,23,9.0,11.0,70,0.00,,OVC025,0.00,VWS V14.01,2013-03-01 12:14:00,
2013-03-01 06:15:00,22.4,14.1,30.27,NNE,22,2.0,11.0,70,0.00,,OVC025,0.00,VWS V14.01,2013-03-01 12:15:00,
2013-03-01 06:19:00,22.4,14.1,30.27,NNE,21,4.0,6.0,70,0.00,,OVC025,0.00,VWS V14.01,2013-03-01 12:19:00,
2013-03-01 06:24:00,22.4,14.1,30.27,NNE,26,6.0,10.0,70,0.00,,OVC025,0.00,VWS V14.01,2013-03-01 12:24:00,
2013-03-01 06:29:00,22.4,14.1,30.27,NNE,21,3.0,10.0,70,0.00,,OVC025,0.00,VWS V14.01,2013-03-01 12:29:00,
2013-03-01 06:30:00,22.5,14.5,30.29,North,11,2.0,11.0,71,0.00,,OVC043,0.00,VWS V15.00,2013-03-01 12:30:00,
2013-03-01 06:36:00,22.4,14.1,30.27,NNE,24,5.0,7.0,70,0.00,,OVC025,0.00,VWS V14.01,2013-03-01 12:36:00,
2013-03-01 06:41:00,22.4,14.1,30.27,NNE,21,6.0,9.0,70,0.00,,OVC025,0.00,VWS V14.01,2013-03-01 12:41:00,
2013-03-01 06:45:00,22.4,14.1,30.27,NNE,24,3.0,9.0,70,0.00,,,0.00,VWS V15.00,2013-03-01 12:45:00,
2013-03-01 06:46:00,22.4,14.1,30.27,NNE,25,5.0,9.0,70,0.00,,OVC025,0.00,VWS V14.01,2013-03-01 12:46:00,
2013-03-01 06:51:00,22.2,14.2,30.27,NNE,24,6.0,6.0,71,0.00,,OVC025,0.00,VWS V14.01,2013-03-01 12:51:00,
2013-03-01 06:56:00,22.2,13.9,30.27,NNE,26,3.0,12.0,70,0.00,,OVC025,0.00,VWS V14.01,2013-03-01 12:56:00,
2013-03-01 07:00:00,22.2,14.2,30.28,NNE,25,6.0,12.0,71,0.00,,,0.00,VWS V15.00,2013-03-01 13:00:00,
2013-03-01 07:01:00,22.2,14.2,30.27,NNE,25,3.0,12.0,71,0.00,,OVC025,0.00,VWS V14.01,2013-03-01 13:01:00,
2013-03-01 07:06:00,22.2,14.2,30.28,NNE,25,2.0,6.0,71,0.00,,OVC021,0.00,VWS V14.01,2013-03-01 13:06:00,
2013-03-01 07:11:00,22.2,14.2,30.28,NNE,15,7.0,7.0,71,0.00,,OVC021,0.00,VWS V14.01,2013-03-01 13:11:00,
2013-03-01 07:15:00,22.4,14.4,30.28,NNE,26,2.0,10.0,71,0.00,,,0.00,VWS V15.00,2013-03-01 13:15:00,
2013-03-01 07:16:00,22.4,14.4,30.28,NNE,30,5.0,10.0,71,0.00,,OVC021,0.00,VWS V14.01,2013-03-01 13:16:00,
2013-03-01 07:21:00,22.4,14.4,30.28,NNE,18,4.0,6.0,71,0.00,,OVC021,0.00,VWS V14.01,2013-03-01 13:21:00,
2013-03-01 07:26:00,22.5,14.5,30.28,NNE,16,5.0,6.0,71,0.00,,OVC021,0.00,VWS V14.01,2013-03-01 13:26:00,
2013-03-01 07:30:00,22.5,14.5,30.29,North,11,2.0,11.0,71,0.00,,,0.00,VWS V15.00,2013-03-01 13:30:00,
2013-03-01 07:31:00,22.5,14.5,30.28,NNE,18,10.0,11.0,71,0.00,,OVC021,0.00,VWS V14.01,2013-03-01 13:31:00,
2013-03-01 07:36:00,22.5,14.5,30.29,North,0,9.0,12.0,71,0.00,,OVC021,0.00,VWS V14.01,2013-03-01 13:36:00,
2013-03-01 07:41:00,22.5,14.2,30.29,NNE,25,8.0,14.0,70,0.00,,OVC021,0.00,VWS V14.01,2013-03-01 13:41:00,
2013-03-01 07:45:00,22.5,14.2,30.29,NNE,22,1.0,14.0,70,0.00,,,0.00,VWS V15.00,2013-03-01 13:45:00,
2013-03-01 07:46:00,22.5,14.5,30.29,NNE,25,2.0,14.0,71,0.00,,OVC021,0.00,VWS V14.01,2013-03-01 13:46:00,
2013-03-01 07:51:00,22.7,14.7,30.29,NNE,16,2.0,5.0,71,0.00,,OVC021,0.00,VWS V14.01,2013-03-01 13:51:00,
2013-03-01 07:56:00,22.7,14.4,30.29,NNE,23,3.0,12.0,70,0.00,,OVC021,0.00,VWS V14.01,2013-03-01 13:56:00,
2013-03-01 08:00:00,22.7,14.7,30.29,NNE,21,7.0,12.0,71,0.00,,,0.00,VWS V15.00,2013-03-01 14:00:00,
2013-03-01 08:01:00,22.7,14.7,30.29,North,8,7.0,12.0,71,0.00,,OVC021,0.00,VWS V14.01,2013-03-01 14:01:00,
2013-03-01 08:06:00,22.7,14.4,30.29,NE,51,7.0,12.0,70,0.00,,OVC021,0.00,VWS V14.01,2013-03-01 14:06:00,
2013-03-01 08:11:00,22.7,14.4,30.29,NNE,17,4.0,13.0,70,0.00,,OVC021,0.00,VWS V14.01,2013-03-01 14:11:00,
2013-03-01 08:15:00,22.7,14.4,30.30,NNE,16,7.0,13.0,70,0.00,,,0.00,VWS V15.00,2013-03-01 14:15:00,
2013-03-01 08:16:00,22.7,14.4,30.29,NNE,12,6.0,13.0,70,0.00,,OVC021,0.00,VWS V14.01,2013-03-01 14:16:00,
2013-03-01 08:21:00,22.9,14.6,30.30,NNE,21,9.0,12.0,70,0.00,,OVC021,0.00,VWS V14.01,2013-03-01 14:21:00,
2013-03-01 08:26:00,22.9,14.6,30.30,North,3,6.0,12.0,70,0.00,,OVC021,0.00,VWS V14.01,2013-03-01 14:26:00,
2013-03-01 08:30:00,23.0,14.7,30.30,NNE,26,4.0,15.0,70,0.00,,,0.00,VWS V15.00,2013-03-01 14:30:00,
2013-03-01 08:31:00,23.0,14.7,30.30,NNE,21,7.0,15.0,70,0.00,,OVC021,0.00,VWS V14.01,2013-03-01 14:31:00,
2013-03-01 08:36:00,23.0,14.7,30.30,NNE,13,1.0,12.0,70,0.00,,OVC021,0.00,VWS V14.01,2013-03-01 14:36:00,
2013-03-01 08:41:00,23.0,14.7,30.30,NE,34,1.0,14.0,70,0.00,,OVC021,0.00,VWS V14.01,2013-03-01 14:41:00,
2013-03-01 08:45:00,23.0,14.4,30.30,NNE,25,7.0,14.0,69,0.00,,,0.00,VWS V15.00,2013-03-01 14:45:00,
2013-03-01 08:46:00,23.0,14.4,30.30,NNE,30,3.0,14.0,69,0.00,,OVC021,0.00,VWS V14.01,2013-03-01 14:46:00,
2013-03-01 08:51:00,23.0,14.7,30.30,NNE,21,5.0,14.0,70,0.00,,OVC021,0.00,VWS V14.01,2013-03-01 14:51:00,
2013-03-01 08:56:00,23.0,14.7,30.30,NNE,16,10.0,15.0,70,0.00,,OVC021,0.00,VWS V14.01,2013-03-01 14:56:00,
2013-03-01 09:00:00,23.0,14.4,30.30,NNE,21,2.0,17.0,69,0.00,,,0.00,VWS V15.00,2013-03-01 15:00:00,
2013-03-01 09:01:00,23.0,14.4,30.30,NNE,29,7.0,17.0,69,0.00,,OVC021,0.00,VWS V14.01,2013-03-01 15:01:00,
2013-03-01 09:07:00,23.0,14.4,30.30,NNE,27,9.0,15.0,69,0.00,,OVC021,0.00,VWS V14.01,2013-03-01 15:07:00,
2013-03-01 09:12:00,23.0,14.4,30.30,NNE,28,13.0,15.0,69,0.00,,OVC021,0.00,VWS V14.01,2013-03-01 15:12:00,
2013-03-01 09:15:00,23.0,14.4,30.30,NE,53,2.0,15.0,69,0.00,,,0.00,VWS V15.00,2013-03-01 15:15:00,
2013-03-01 09:17:00,23.0,14.4,30.30,ENE,63,4.0,15.0,69,0.00,,OVC021,0.00,VWS V14.01,2013-03-01 15:17:00,
2013-03-01 09:22:00,23.3,14.6,30.30,NNE,33,5.0,14.0,69,0.00,,OVC021,0.00,VWS V14.01,2013-03-01 15:22:00,
2013-03-01 09:27:00,23.6,14.9,30.30,NNE,28,2.0,14.0,69,0.00,,OVC021,0.00,VWS V14.01,2013-03-01 15:27:00,
2013-03-01 09:30:00,23.9,15.2,30.30,NNE,16,11.0,14.0,69,0.00,,,0.00,VWS V15.00,2013-03-01 15:30:00,
2013-03-01 09:32:00,23.9,15.2,30.30,NNE,16,7.0,14.0,69,0.00,,OVC019,0.00,VWS V14.01,2013-03-01 15:32:00,
2013-03-01 09:37:00,23.8,14.8,30.30,NNE,21,11.0,16.0,68,0.00,,OVC019,0.00,VWS V14.01,2013-03-01 15:37:00,
2013-03-01 09:42:00,23.6,14.6,30.30,NE,56,12.0,16.0,68,0.00,,OVC019,0.00,VWS V14.01,2013-03-01 15:42:00,
2013-03-01 09:45:00,23.6,14.6,30.31,ENE,65,13.0,17.0,68,0.00,,,0.00,VWS V15.00,2013-03-01 15:45:00,
2013-03-01 09:47:00,23.6,14.6,30.31,NE,45,3.0,17.0,68,0.00,,OVC019,0.00,VWS V14.01,2013-03-01 15:47:00,
2013-03-01 09:52:00,23.9,15.2,30.31,NE,54,11.0,14.0,69,0.00,,OVC019,0.00,VWS V14.01,2013-03-01 15:52:00,
2013-03-01 09:57:00,24.1,14.7,30.31,NE,49,2.0,14.0,67,0.00,,OVC019,0.00,VWS V14.01,2013-03-01 15:57:00,
2013-03-01 10:00:00,24.4,15.0,30.31,North,9,3.0,14.0,67,0.00,,,0.00,VWS V15.00,2013-03-01 16:00:00,
2013-03-01 10:02:00,24.4,15.4,30.31,North,9,2.0,14.0,68,0.00,,OVC019,0.00,VWS V14.01,2013-03-01 16:02:00,
2013-03-01 10:07:00,24.5,14.8,30.31,NNE,23,8.0,11.0,66,0.00,,OVC019,0.00,VWS V14.01,2013-03-01 16:07:00,
2013-03-01 10:12:00,24.5,15.1,30.31,North,355,3.0,13.0,67,0.00,,OVC019,0.00,VWS V14.01,2013-03-01 16:12:00,
2013-03-01 10:15:00,24.7,15.3,30.31,NE,36,12.0,13.0,67,0.00,,,0.00,VWS V15.00,2013-03-01 16:15:00,
2013-03-01 10:17:00,24.7,15.3,30.31,NNE,14,12.0,13.0,67,0.00,,OVC019,0.00,VWS V14.01,2013-03-01 16:17:00,
2013-03-01 10:22:00,24.7,15.0,30.31,North,10,5.0,16.0,66,0.00,,OVC019,0.00,VWS V14.01,2013-03-01 16:22:00,
2013-03-01 10:27:00,24.7,15.3,30.31,NNE,19,0.0,16.0,67,0.00,,OVC019,0.00,VWS V14.01,2013-03-01 16:27:00,
2013-03-01 10:30:00,24.7,15.0,30.30,North,350,1.0,16.0,66,0.00,,,0.00,VWS V15.00,2013-03-01 16:30:00,
2013-03-01 10:32:00,24.7,15.0,30.30,North,350,3.0,16.0,66,0.00,,OVC019,0.00,VWS V14.01,2013-03-01 16:32:00,
2013-03-01 10:37:00,24.7,15.0,30.30,NNE,19,9.0,16.0,66,0.00,,OVC019,0.00,VWS V14.01,2013-03-01 16:37:00,
2013-03-01 10:42:00,24.5,14.8,30.30,North,5,8.0,16.0,66,0.00,,OVC019,0.00,VWS V14.01,2013-03-01 16:42:00,
2013-03-01 10:45:00,24.5,14.8,30.31,NNE,16,10.0,16.0,66,0.00,,,0.00,VWS V15.00,2013-03-01 16:45:00,
2013-03-01 10:47:00,24.5,14.8,30.31,NNE,16,10.0,16.0,66,0.00,,OVC019,0.00,VWS V14.01,2013-03-01 16:47:00,
2013-03-01 10:52:00,24.7,14.6,30.31,NNE,16,10.0,17.0,65,0.00,,OVC019,0.00,VWS V14.01,2013-03-01 16:52:00,
2013-03-01 10:57:00,25.0,14.9,30.31,North,357,10.0,17.0,65,0.00,,OVC019,0.00,VWS V14.01,2013-03-01 16:57:00,
2013-03-01 11:00:00,25.6,15.5,30.30,North,359,10.0,17.0,65,0.00,,,0.00,VWS V15.00,2013-03-01 17:00:00,
2013-03-01 11:02:00,25.6,15.5,30.30,North,359,11.0,11.0,65,0.00,,OVC019,0.00,VWS V14.01,2013-03-01 17:02:00,
2013-03-01 11:07:00,25.6,15.1,30.30,NNE,32,9.0,20.0,64,0.00,,OVC019,0.00,VWS V14.01,2013-03-01 17:07:00,
2013-03-01 11:12:00,25.7,14.9,30.30,NNE,28,5.0,20.0,63,0.00,,OVC019,0.00,VWS V14.01,2013-03-01 17:12:00,
2013-03-01 11:15:00,26.0,15.5,30.30,NNE,20,3.0,20.0,64,0.00,,,0.00,VWS V15.00,2013-03-01 17:15:00,
2013-03-01 11:17:00,26.0,15.1,30.30,NNE,19,4.0,4.0,63,0.00,,OVC019,0.00,VWS V14.01,2013-03-01 17:17:00,
2013-03-01 11:22:00,26.1,14.9,30.30,NE,54,11.0,16.0,62,0.00,,OVC019,0.00,VWS V14.01,2013-03-01 17:22:00,
2013-03-01 11:27:00,26.0,14.8,30.30,NE,37,13.0,16.0,62,0.00,,OVC019,0.00,VWS V14.01,2013-03-01 17:27:00,
2013-03-01 11:30:00,26.3,15.1,30.30,North,5,10.0,16.0,62,0.00,,,0.00,VWS V15.00,2013-03-01 17:30:00,
2013-03-01 11:33:00,26.3,15.1,30.30,NE,35,9.0,10.0,62,0.00,,OVC023,0.00,VWS V14.01,2013-03-01 17:33:00,
2013-03-01 11:38:00,26.3,15.4,30.30,NNE,28,5.0,16.0,63,0.00,,OVC023,0.00,VWS V14.01,2013-03-01 17:38:00,
2013-03-01 11:43:00,26.4,15.2,30.30,NE,37,3.0,16.0,62,0.00,,OVC023,0.00,VWS V14.01,2013-03-01 17:43:00,
2013-03-01 11:45:00,26.9,15.6,30.30,ENE,61,1.0,16.0,62,0.00,,,0.00,VWS V15.00,2013-03-01 17:45:00,
2013-03-01 11:48:00,27.0,15.7,30.30,NE,49,1.0,4.0,62,0.00,,OVC023,0.00,VWS V14.01,2013-03-01 17:48:00,
2013-03-01 11:53:00,28.1,16.4,30.30,NNE,12,5.0,12.0,61,0.00,,OVC023,0.00,VWS V14.01,2013-03-01 17:53:00,
2013-03-01 11:58:00,27.9,15.1,30.30,NNE,29,1.0,14.0,58,0.00,,OVC023,0.00,VWS V14.01,2013-03-01 17:58:00,
2013-03-01 12:00:00,27.8,15.4,30.30,NNE,28,4.0,14.0,59,0.00,,,0.00,VWS V15.00,2013-03-01 18:00:00,
2013-03-01 12:03:00,27.8,15.4,30.30,NE,35,6.0,7.0,59,0.00,,OVC023,0.00,VWS V14.01,2013-03-01 18:03:00,
2013-03-01 12:08:00,27.8,16.1,30.30,North,11,10.0,12.0,61,0.00,,OVC023,0.00,VWS V14.01,2013-03-01 18:08:00,
2013-03-01 12:13:00,27.9,15.4,30.30,NE,37,8.0,14.0,59,0.00,,OVC023,0.00,VWS V14.01,2013-03-01 18:13:00,
2013-03-01 12:15:00,27.9,15.1,30.30,NE,49,9.0,14.0,58,0.00,,,0.00,VWS V15.00,2013-03-01 18:15:00,
2013-03-01 12:18:00,27.9,15.1,30.30,NE,45,1.0,9.0,58,0.00,,OVC023,0.00,VWS V14.01,2013-03-01 18:18:00,
2013-03-01 12:23:00,28.2,15.7,30.30,NNE,25,6.0,12.0,59,0.00,,OVC023,0.00,VWS V14.01,2013-03-01 18:23:00,
2013-03-01 12:28:00,28.8,15.5,30.30,North,5,0.0,13.0,57,0.00,,OVC023,0.00,VWS V14.01,2013-03-01 18:28:00,
2013-03-01 12:30:00,28.5,15.2,30.29,NNE,18,11.0,13.0,57,0.00,,,0.00,VWS V15.00,2013-03-01 18:30:00,
2013-03-01 12:33:00,28.5,15.2,30.29,NNE,14,13.0,15.0,57,0.00,,BKN025,0.00,VWS V14.01,2013-03-01 18:33:00,
2013-03-01 12:38:00,28.4,15.5,30.29,ENE,59,10.0,15.0,58,0.00,,BKN025,0.00,VWS V14.01,2013-03-01 18:38:00,
2013-03-01 12:43:00,28.4,14.3,30.29,NNE,23,2.0,18.0,55,0.00,,BKN025,0.00,VWS V14.01,2013-03-01 18:43:00,
2013-03-01 12:45:00,28.5,14.8,30.29,NNE,26,11.0,18.0,56,0.00,,,0.00,VWS V15.00,2013-03-01 18:45:00,
2013-03-01 12:49:00,28.4,14.7,30.29,North,10,11.0,14.0,56,0.00,,BKN025,0.00,VWS V14.01,2013-03-01 18:49:00,
2013-03-01 12:54:00,28.2,14.5,30.29,NNW,331,5.0,15.0,56,0.00,,BKN025,0.00,VWS V14.01,2013-03-01 18:54:00,
2013-03-01 12:59:00,28.7,15.4,30.29,NNE,14,7.0,15.0,57,0.00,,BKN025,0.00,VWS V14.01,2013-03-01 18:59:00,
2013-03-01 13:00:00,29.0,14.9,30.28,North,352,7.0,15.0,55,0.00,,,0.00,VWS V15.00,2013-03-01 19:00:00,
2013-03-01 13:04:00,29.0,15.3,30.28,NNW,344,5.0,11.0,56,0.00,,BKN025,0.00,VWS V14.01,2013-03-01 19:04:00,
2013-03-01 13:09:00,29.1,14.5,30.28,NNE,22,9.0,11.0,54,0.00,,BKN025,0.00,VWS V14.01,2013-03-01 19:09:00,
2013-03-01 13:14:00,28.7,13.8,30.28,NNE,19,11.0,17.0,53,0.00,,BKN025,0.00,VWS V14.01,2013-03-01 19:14:00,
2013-03-01 13:15:00,28.7,14.6,30.28,NNE,13,3.0,17.0,55,0.00,,,0.00,VWS V15.00,2013-03-01 19:15:00,
2013-03-01 13:19:00,28.7,14.2,30.28,North,358,13.0,14.0,54,0.00,,BKN025,0.00,VWS V14.01,2013-03-01 19:19:00,
2013-03-01 13:24:00,28.8,14.7,30.28,North,5,6.0,14.0,55,0.00,,BKN025,0.00,VWS V14.01,2013-03-01 19:24:00,
2013-03-01 13:29:00,29.0,14.9,30.28,North,355,4.0,14.0,55,0.00,,BKN025,0.00,VWS V14.01,2013-03-01 19:29:00,
2013-03-01 13:30:00,29.1,14.5,30.28,NNE,16,18.0,18.0,54,0.00,,,0.00,VWS V15.00,2013-03-01 19:30:00,
2013-03-01 13:34:00,29.0,14.9,30.28,North,355,11.0,18.0,55,0.00,,SCT029,0.00,VWS V14.01,2013-03-01 19:34:00,
2013-03-01 13:39:00,29.0,14.4,30.28,North,0,5.0,18.0,54,0.00,,SCT029,0.00,VWS V14.01,2013-03-01 19:39:00,
2013-03-01 13:44:00,29.3,15.1,30.28,NE,36,6.0,18.0,55,0.00,,SCT029,0.00,VWS V14.01,2013-03-01 19:44:00,
2013-03-01 13:45:00,29.3,14.3,30.28,NNE,21,11.0,18.0,53,0.00,,,0.00,VWS V15.00,2013-03-01 19:45:00,
2013-03-01 13:49:00,29.1,14.5,30.28,NNE,16,2.0,11.0,54,0.00,,SCT029,0.00,VWS V14.01,2013-03-01 19:49:00,
2013-03-01 13:54:00,29.4,14.4,30.28,NNE,25,11.0,16.0,53,0.00,,SCT029,0.00,VWS V14.01,2013-03-01 19:54:00,
2013-03-01 13:59:00,29.7,14.7,30.28,NE,37,2.0,16.0,53,0.00,,SCT029,0.00,VWS V14.01,2013-03-01 19:59:00,
2013-03-01 14:00:00,30.1,14.6,30.28,North,5,6.0,16.0,52,0.00,,,0.00,VWS V15.00,2013-03-01 20:00:00,
2013-03-01 14:04:00,30.1,14.6,30.28,North,11,5.0,10.0,52,0.00,,CLR,0.00,VWS V14.01,2013-03-01 20:04:00,
2013-03-01 14:09:00,30.4,15.3,30.28,North,3,12.0,16.0,53,0.00,,CLR,0.00,VWS V14.01,2013-03-01 20:09:00,
2013-03-01 14:14:00,30.6,15.1,30.28,NNE,29,5.0,16.0,52,0.00,,CLR,0.00,VWS V14.01,2013-03-01 20:14:00,
2013-03-01 14:15:00,30.7,15.6,30.27,NNW,329,14.0,16.0,53,0.00,,,0.00,VWS V15.00,2013-03-01 20:15:00,
2013-03-01 14:19:00,30.6,15.1,30.27,North,9,9.0,14.0,52,0.00,,CLR,0.00,VWS V14.01,2013-03-01 20:19:00,
2013-03-01 14:24:00,30.1,15.1,30.27,North,3,2.0,14.0,53,0.00,,CLR,0.00,VWS V14.01,2013-03-01 20:24:00,
2013-03-01 14:29:00,30.1,14.6,30.27,NNE,17,2.0,14.0,52,0.00,,CLR,0.00,VWS V14.01,2013-03-01 20:29:00,
2013-03-01 14:30:00,30.0,14.5,30.27,NNW,346,2.0,14.0,52,0.00,,,0.00,VWS V15.00,2013-03-01 20:30:00,
2013-03-01 14:34:00,30.0,14.1,30.27,North,11,2.0,12.0,51,0.00,,CLR,0.00,VWS V14.01,2013-03-01 20:34:00,
2013-03-01 14:39:00,29.7,14.2,30.27,North,352,2.0,12.0,52,0.00,,CLR,0.00,VWS V14.01,2013-03-01 20:39:00,
2013-03-01 14:44:00,29.8,14.3,30.27,NE,36,0.0,12.0,52,0.00,,CLR,0.00,VWS V14.01,2013-03-01 20:44:00,
2013-03-01 14:45:00,30.0,14.1,30.28,NE,41,9.0,12.0,51,0.00,,,0.00,VWS V15.00,2013-03-01 20:45:00,
2013-03-01 14:50:00,30.0,14.5,30.28,NNE,23,6.0,12.0,52,0.00,,CLR,0.00,VWS V14.01,2013-03-01 20:50:00,
2013-03-01 14:55:00,30.0,14.5,30.28,NE,35,0.0,13.0,52,0.00,,CLR,0.00,VWS V14.01,2013-03-01 20:55:00,
2013-03-01 15:00:00,29.7,14.7,30.28,NE,41,10.0,14.0,53,0.00,,CLR,0.00,VWS V14.01,2013-03-01 21:00:00,
2013-03-01 15:05:00,29.7,14.2,30.27,NE,45,4.0,16.0,52,0.00,,CLR,0.00,VWS V14.01,2013-03-01 21:05:00,
2013-03-01 15:10:00,29.4,13.1,30.27,NE,37,8.0,18.0,50,0.00,,CLR,0.00,VWS V14.01,2013-03-01 21:10:00,
2013-03-01 15:15:00,29.5,13.6,30.27,NE,35,3.0,18.0,51,0.00,,CLR,0.00,VWS V14.01,2013-03-01 21:15:00,
2013-03-01 15:20:00,29.8,13.4,30.27,North,2,4.0,13.0,50,0.00,,CLR,0.00,VWS V14.01,2013-03-01 21:20:00,
2013-03-01 15:25:00,30.1,13.3,30.27,NNW,348,10.0,15.0,49,0.00,,CLR,0.00,VWS V14.01,2013-03-01 21:25:00,
2013-03-01 15:30:00,30.1,13.3,30.27,North,9,7.0,15.0,49,0.00,,CLR,0.00,VWS V14.01,2013-03-01 21:30:00,
2013-03-01 15:35:00,30.1,13.7,30.28,North,6,1.0,10.0,50,0.00,,CLR,0.00,VWS V14.01,2013-03-01 21:35:00,
2013-03-01 15:40:00,30.7,14.3,30.28,NNW,337,5.0,10.0,50,0.00,,CLR,0.00,VWS V14.01,2013-03-01 21:40:00,
2013-03-01 15:45:00,30.4,13.5,30.28,NNE,21,11.0,12.0,49,0.00,,CLR,0.00,VWS V14.01,2013-03-01 21:45:00,
2013-03-01 15:50:00,30.3,13.0,30.28,North,5,7.0,15.0,48,0.00,,CLR,0.00,VWS V14.01,2013-03-01 21:50:00,
2013-03-01 15:55:00,30.0,13.2,30.28,NNE,32,0.0,16.0,49,0.00,,CLR,0.00,VWS V14.01,2013-03-01 21:55:00,
2013-03-01 16:00:00,29.8,12.5,30.28,NNE,14,11.0,16.0,48,0.00,,CLR,0.00,VWS V14.01,2013-03-01 22:00:00,
2013-03-01 16:05:00,29.4,12.1,30.28,NNE,22,4.0,16.0,48,0.00,,CLR,0.00,VWS V14.01,2013-03-01 22:05:00,
2013-03-01 16:10:00,29.3,12.1,30.28,NNE,26,4.0,16.0,48,0.00,,CLR,0.00,VWS V14.01,2013-03-01 22:10:00,
2013-03-01 16:15:00,29.4,12.1,30.28,NE,41,8.0,16.0,48,0.00,,CLR,0.00,VWS V14.01,2013-03-01 22:15:00,
2013-03-01 16:20:00,29.1,12.3,30.28,NNE,21,6.0,16.0,49,0.00,,CLR,0.00,VWS V14.01,2013-03-01 22:20:00,
2013-03-01 16:25:00,29.0,11.8,30.28,NNE,30,5.0,16.0,48,0.00,,CLR,0.00,VWS V14.01,2013-03-01 22:25:00,
2013-03-01 16:30:00,29.1,11.9,30.28,NNE,29,6.0,16.0,48,0.00,,CLR,0.00,VWS V14.01,2013-03-01 22:30:00,
2013-03-01 16:35:00,29.1,12.3,30.28,North,11,3.0,14.0,49,0.00,,CLR,0.00,VWS V14.01,2013-03-01 22:35:00,
2013-03-01 16:40:00,29.3,12.1,30.28,NNE,30,5.0,14.0,48,0.00,,CLR,0.00,VWS V14.01,2013-03-01 22:40:00,
2013-03-01 16:45:00,29.3,12.1,30.28,NE,42,5.0,14.0,48,0.00,,CLR,0.00,VWS V14.01,2013-03-01 22:45:00,
2013-03-01 16:50:00,29.1,11.9,30.28,NE,34,7.0,13.0,48,0.00,,CLR,0.00,VWS V14.01,2013-03-01 22:50:00,
2013-03-01 16:55:00,28.8,11.1,30.28,NNE,30,4.0,15.0,47,0.00,,CLR,0.00,VWS V14.01,2013-03-01 22:55:00,
2013-03-01 17:00:00,28.5,11.3,30.28,NNE,26,7.0,15.0,48,0.00,,CLR,0.00,VWS V14.01,2013-03-01 23:00:00,
2013-03-01 17:06:00,28.1,11.4,30.28,NNE,26,5.0,10.0,49,0.00,,CLR,0.00,VWS V14.01,2013-03-01 23:06:00,
2013-03-01 17:11:00,27.8,11.1,30.28,NNE,21,2.0,12.0,49,0.00,,CLR,0.00,VWS V14.01,2013-03-01 23:11:00,
2013-03-01 17:15:00,27.3,10.7,30.29,NE,37,4.0,12.0,49,0.00,,,0.00,VWS V15.00,2013-03-01 23:15:00,
2013-03-01 17:16:00,27.3,10.7,30.28,NNE,30,5.0,12.0,49,0.00,,CLR,0.00,VWS V14.01,2013-03-01 23:16:00,
2013-03-01 17:21:00,27.2,11.5,30.29,NE,50,2.0,6.0,51,0.00,,CLR,0.00,VWS V14.01,2013-03-01 23:21:00,
2013-03-01 17:26:00,26.9,10.8,30.29,NNE,26,6.0,12.0,50,0.00,,CLR,0.00,VWS V14.01,2013-03-01 23:26:00,
2013-03-01 17:30:00,26.7,11.0,30.29,NNE,17,3.0,12.0,51,0.00,,,0.00,VWS V15.00,2013-03-01 23:30:00,
2013-03-01 17:31:00,26.9,11.2,30.29,NNE,27,4.0,12.0,51,0.00,,CLR,0.00,VWS V14.01,2013-03-01 23:31:00,
2013-03-01 17:36:00,26.6,11.4,30.29,NNE,21,0.0,5.0,52,0.00,,CLR,0.00,VWS V14.01,2013-03-01 23:36:00,
2013-03-01 17:41:00,26.3,11.5,30.29,NNE,28,2.0,7.0,53,0.00,,CLR,0.00,VWS V14.01,2013-03-01 23:41:00,
2013-03-01 17:45:00,26.1,10.9,30.29,NNE,19,4.0,7.0,52,0.00,,,0.00,VWS V15.00,2013-03-01 23:45:00,
2013-03-01 17:46:00,26.1,10.9,30.29,NNE,33,3.0,7.0,52,0.00,,CLR,0.00,VWS V14.01,2013-03-01 23:46:00,
2013-03-01 17:51:00,26.0,10.8,30.29,NE,34,1.0,6.0,52,0.00,,CLR,0.00,VWS V14.01,2013-03-01 23:51:00,
2013-03-01 17:56:00,25.7,10.9,30.29,NNE,26,1.0,6.0,53,0.00,,CLR,0.00,VWS V14.01,2013-03-01 23:56:00,
2013-03-01 18:00:00,25.4,11.1,30.30,NNE,16,4.0,9.0,54,0.00,,,0.00,VWS V15.00,2013-03-02 00:00:00,
2013-03-01 18:01:00,25.4,10.2,30.29,NNE,13,4.0,9.0,52,0.00,,CLR,0.00,VWS V14.01,2013-03-02 00:01:00,
2013-03-01 18:06:00,25.3,10.1,30.30,NNE,16,3.0,8.0,52,0.00,,CLR,0.00,VWS V14.01,2013-03-02 00:06:00,
2013-03-01 18:11:00,25.0,10.3,30.30,NNE,20,9.0,9.0,53,0.00,,CLR,0.00,VWS V14.01,2013-03-02 00:11:00,
2013-03-01 18:15:00,24.7,11.2,30.30,North,10,4.0,9.0,56,0.00,,,0.00,VWS V15.00,2013-03-02 00:15:00,
2013-03-01 18:16:00,24.7,11.2,30.30,North,0,5.0,9.0,56,0.00,,CLR,0.00,VWS V14.01,2013-03-02 00:16:00,
2013-03-01 18:21:00,24.5,11.5,30.30,NNW,337,2.0,10.0,57,0.00,,CLR,0.00,VWS V14.01,2013-03-02 00:21:00,
2013-03-01 18:26:00,24.2,11.9,30.30,North,3,6.0,10.0,59,0.00,,CLR,0.00,VWS V14.01,2013-03-02 00:26:00,
2013-03-01 18:30:00,23.9,12.1,30.31,North,7,2.0,11.0,60,0.00,,,0.00,VWS V15.00,2013-03-02 00:30:00,
2013-03-01 18:31:00,23.9,12.1,30.30,North,10,7.0,11.0,60,0.00,,CLR,0.00,VWS V14.01,2013-03-02 00:31:00,
2013-03-01 18:36:00,23.8,12.0,30.31,NNE,17,3.0,12.0,60,0.00,,CLR,0.00,VWS V14.01,2013-03-02 00:36:00,
2013-03-01 18:41:00,23.6,12.1,30.31,NNE,12,2.0,12.0,61,0.00,,CLR,0.00,VWS V14.01,2013-03-02 00:41:00,
2013-03-01 18:45:00,23.2,11.8,30.31,North,356,6.0,12.0,61,0.00,,,0.00,VWS V15.00,2013-03-02 00:45:00,
2013-03-01 18:46:00,23.3,11.9,30.31,North,355,2.0,12.0,61,0.00,,CLR,0.00,VWS V14.01,2013-03-02 00:46:00,
2013-03-01 18:51:00,22.9,11.8,30.31,North,355,5.0,8.0,62,0.00,,CLR,0.00,VWS V14.01,2013-03-02 00:51:00,
2013-03-01 18:56:00,22.5,11.8,30.31,North,355,2.0,8.0,63,0.00,,CLR,0.00,VWS V14.01,2013-03-02 00:56:00,
2013-03-01 19:00:00,22.2,11.5,30.31,NNE,21,0.0,10.0,63,0.00,,,0.00,VWS V15.00,2013-03-02 01:00:00,
2013-03-01 19:01:00,22.2,11.5,30.31,North,0,7.0,10.0,63,0.00,,CLR,0.00,VWS V14.01,2013-03-02 01:01:00,
2013-03-01 19:06:00,22.2,11.9,30.31,North,353,1.0,12.0,64,0.00,,CLR,0.00,VWS V14.01,2013-03-02 01:06:00,
2013-03-01 19:12:00,21.9,11.6,30.31,NNE,16,2.0,12.0,64,0.00,,CLR,0.00,VWS V14.01,2013-03-02 01:12:00,
2013-03-01 19:15:00,21.8,11.5,30.32,North,2,6.0,12.0,64,0.00,,,0.00,VWS V15.00,2013-03-02 01:15:00,
2013-03-01 19:17:00,21.8,11.5,30.32,North,4,5.0,12.0,64,0.00,,CLR,0.00,VWS V14.01,2013-03-02 01:17:00,
2013-03-01 19:22:00,21.6,11.3,30.32,North,2,4.0,9.0,64,0.00,,CLR,0.00,VWS V14.01,2013-03-02 01:22:00,
2013-03-01 19:27:00,21.3,11.0,30.32,North,0,2.0,10.0,64,0.00,,CLR,0.00,VWS V14.01,2013-03-02 01:27:00,
2013-03-01 19:30:00,21.1,11.2,30.32,North,11,4.0,12.0,65,0.00,,,0.00,VWS V15.00,2013-03-02 01:30:00,
2013-03-01 19:32:00,21.1,11.2,30.32,North,349,11.0,12.0,65,0.00,,CLR,0.00,VWS V14.01,2013-03-02 01:32:00,
2013-03-01 19:37:00,21.0,11.1,30.32,North,9,7.0,11.0,65,0.00,,CLR,0.00,VWS V14.01,2013-03-02 01:37:00,
2013-03-01 19:42:00,20.6,10.7,30.32,North,4,5.0,11.0,65,0.00,,CLR,0.00,VWS V14.01,2013-03-02 01:42:00,
2013-03-01 19:45:00,20.3,10.8,30.32,North,359,0.0,11.0,66,0.00,,OVC016,0.00,VWS V15.00,2013-03-02 01:45:00,
2013-03-01 19:47:00,20.3,10.8,30.32,North,359,1.0,11.0,66,0.00,,CLR,0.00,VWS V14.01,2013-03-02 01:47:00,
2013-03-01 19:52:00,20.0,10.5,30.32,North,357,6.0,10.0,66,0.00,,CLR,0.00,VWS V14.01,2013-03-02 01:52:00,
2013-03-01 19:57:00,19.9,10.7,30.32,North,351,8.0,10.0,67,0.00,,CLR,0.00,VWS V14.01,2013-03-02 01:57:00,
2013-03-01 20:00:00,19.7,10.5,30.33,North,0,5.0,12.0,67,0.00,,,0.00,VWS V15.00,2013-03-02 02:00:00,
2013-03-01 20:02:00,19.7,10.5,30.33,North,0,5.0,12.0,67,0.00,,CLR,0.00,VWS V14.01,2013-03-02 02:02:00,
2013-03-01 20:07:00,19.5,10.3,30.33,North,2,4.0,7.0,67,0.00,,CLR,0.00,VWS V14.01,2013-03-02 02:07:00,
2013-03-01 20:13:00,19.4,10.2,30.33,North,1,5.0,10.0,67,0.00,,CLR,0.00,VWS V14.01,2013-03-02 02:13:00,
2013-03-01 20:15:00,19.2,10.4,30.33,North,353,1.0,10.0,68,0.00,,OVC016,0.00,VWS V15.00,2013-03-02 02:15:00,
2013-03-01 20:18:00,19.2,10.4,30.33,North,355,5.0,5.0,68,0.00,,CLR,0.00,VWS V14.01,2013-03-02 02:18:00,
2013-03-01 20:23:00,18.9,10.1,30.33,North,5,2.0,9.0,68,0.00,,CLR,0.00,VWS V14.01,2013-03-02 02:23:00,
2013-03-01 20:28:00,18.8,10.0,30.33,North,10,3.0,9.0,68,0.00,,CLR,0.00,VWS V14.01,2013-03-02 02:28:00,
2013-03-01 20:30:00,18.6,9.8,30.33,NNE,15,4.0,9.0,68,0.00,,,0.00,VWS V15.00,2013-03-02 02:30:00,
2013-03-01 20:33:00,18.4,9.9,30.33,NNE,13,0.0,5.0,69,0.00,,CLR,0.00,VWS V14.01,2013-03-02 02:33:00,
2013-03-01 20:38:00,18.3,9.9,30.33,NNE,16,4.0,11.0,69,0.00,,CLR,0.00,VWS V14.01,2013-03-02 02:38:00,
2013-03-01 20:43:00,18.1,9.7,30.33,North,2,3.0,11.0,69,0.00,,CLR,0.00,VWS V14.01,2013-03-02 02:43:00,
2013-03-01 20:45:00,18.0,9.6,30.33,North,6,6.0,11.0,69,0.00,,,0.00,VWS V15.00,2013-03-02 02:45:00,
2013-03-01 20:48:00,18.0,9.6,30.33,North,3,4.0,6.0,69,0.00,,CLR,0.00,VWS V14.01,2013-03-02 02:48:00,
2013-03-01 20:53:00,17.8,9.7,30.33,North,6,9.0,9.0,70,0.00,,CLR,0.00,VWS V14.01,2013-03-02 02:53:00,
2013-03-01 20:58:00,17.5,9.4,30.33,NNE,12,1.0,9.0,70,0.00,,CLR,0.00,VWS V14.01,2013-03-02 02:58:00,
2013-03-01 21:00:00,17.3,9.2,30.33,NNE,17,1.0,9.0,70,0.00,,,0.00,VWS V15.00,2013-03-02 03:00:00,
2013-03-01 21:04:00,17.3,9.5,30.33,NNE,16,5.0,5.0,71,0.00,,CLR,0.00,VWS V14.01,2013-03-02 03:04:00,
2013-03-01 21:09:00,17.0,9.2,30.33,NNE,15,3.0,6.0,71,0.00,,CLR,0.00,VWS V14.01,2013-03-02 03:09:00,
2013-03-01 21:14:00,16.7,8.9,30.33,NNE,16,0.0,6.0,71,0.00,,CLR,0.00,VWS V14.01,2013-03-02 03:14:00,
2013-03-01 21:15:00,16.7,9.3,30.33,NNE,18,2.0,6.0,72,0.00,,,0.00,VWS V15.00,2013-03-02 03:15:00,
2013-03-01 21:19:00,16.5,9.1,30.33,NNE,19,4.0,7.0,72,0.00,,CLR,0.00,VWS V14.01,2013-03-02 03:19:00,
2013-03-01 21:24:00,16.4,9.0,30.33,NNE,16,5.0,7.0,72,0.00,,CLR,0.00,VWS V14.01,2013-03-02 03:24:00,
2013-03-01 21:29:00,16.1,8.7,30.33,NNE,16,3.0,7.0,72,0.00,,CLR,0.00,VWS V14.01,2013-03-02 03:29:00,
2013-03-01 21:30:00,15.9,8.5,30.33,NNE,14,0.0,7.0,72,0.00,,,0.00,VWS V15.00,2013-03-02 03:30:00,
2013-03-01 21:34:00,15.9,8.5,30.33,NNE,14,3.0,6.0,72,0.00,,CLR,0.00,VWS V14.01,2013-03-02 03:34:00,
2013-03-01 21:39:00,15.6,8.5,30.33,North,11,1.0,6.0,73,0.00,,CLR,0.00,VWS V14.01,2013-03-02 03:39:00,
2013-03-01 21:44:00,15.2,8.1,30.33,North,11,4.0,6.0,73,0.00,,CLR,0.00,VWS V14.01,2013-03-02 03:44:00,
2013-03-01 21:45:00,15.1,8.3,30.33,North,10,3.0,6.0,74,0.00,,,0.00,VWS V15.00,2013-03-02 03:45:00,
2013-03-01 21:49:00,14.9,8.1,30.33,North,10,3.0,4.0,74,0.00,,CLR,0.00,VWS V14.01,2013-03-02 03:49:00,
2013-03-01 21:54:00,14.6,7.8,30.33,North,10,0.0,6.0,74,0.00,,CLR,0.00,VWS V14.01,2013-03-02 03:54:00,
2013-03-01 21:59:00,14.4,7.9,30.33,North,10,3.0,6.0,75,0.00,,CLR,0.00,VWS V14.01,2013-03-02 03:59:00,
2013-03-01 22:00:00,14.3,7.8,30.33,North,10,1.0,6.0,75,0.00,,,0.00,VWS V15.00,2013-03-02 04:00:00,
2013-03-01 22:04:00,14.3,7.8,30.33,North,10,4.0,5.0,75,0.00,,CLR,0.00,VWS V14.01,2013-03-02 04:04:00,
2013-03-01 22:09:00,14.1,7.7,30.33,North,10,3.0,5.0,75,0.00,,CLR,0.00,VWS V14.01,2013-03-02 04:09:00,
2013-03-01 22:14:00,13.8,7.4,30.33,North,10,0.0,5.0,75,0.00,,CLR,0.00,VWS V14.01,2013-03-02 04:14:00,
2013-03-01 22:15:00,13.6,7.4,30.33,North,10,1.0,5.0,76,0.00,,,0.00,VWS V15.00,2013-03-02 04:15:00,
2013-03-01 22:19:00,13.5,7.4,30.33,North,10,0.0,4.0,76,0.00,,CLR,0.00,VWS V14.01,2013-03-02 04:19:00,
2013-03-01 22:24:00,13.1,7.0,30.33,North,10,1.0,4.0,76,0.00,,CLR,0.00,VWS V14.01,2013-03-02 04:24:00,
2013-03-01 22:29:00,13.1,7.3,30.33,North,10,0.0,4.0,77,0.00,,CLR,0.00,VWS V14.01,2013-03-02 04:29:00,
2013-03-01 22:30:00,12.9,7.1,30.33,North,10,0.0,4.0,77,0.00,,,0.00,VWS V15.00,2013-03-02 04:30:00,
2013-03-01 22:35:00,12.8,7.0,30.33,North,10,0.0,0.0,77,0.00,,CLR,0.00,VWS V14.01,2013-03-02 04:35:00,
2013-03-01 22:40:00,12.8,7.2,30.33,North,10,0.0,0.0,78,0.00,,CLR,0.00,VWS V14.01,2013-03-02 04:40:00,
2013-03-01 22:45:00,12.6,7.1,30.33,North,10,0.0,0.0,78,0.00,,CLR,0.00,VWS V14.01,2013-03-02 04:45:00,
2013-03-01 22:50:00,12.4,6.9,30.33,North,10,3.0,4.0,78,0.00,,CLR,0.00,VWS V14.01,2013-03-02 04:50:00,
2013-03-01 22:55:00,12.1,6.6,30.33,North,10,3.0,5.0,78,0.00,,CLR,0.00,VWS V14.01,2013-03-02 04:55:00,
2013-03-01 23:00:00,11.7,6.5,30.33,North,10,3.0,5.0,79,0.00,,CLR,0.00,VWS V14.01,2013-03-02 05:00:00,
2013-03-01 23:02:00,11.6,6.4,30.33,North,10,3.0,5.0,79,0.00,,CLR,0.00,VWS V14.01,2013-03-02 05:02:00,
2013-03-01 23:04:00,11.4,6.2,30.33,North,10,3.0,4.0,79,0.00,,CLR,0.00,VWS V14.01,2013-03-02 05:04:00,
2013-03-01 23:09:00,11.2,6.0,30.33,North,10,2.0,4.0,79,0.00,,CLR,0.00,VWS V14.01,2013-03-02 05:09:00,
2013-03-01 23:14:00,11.4,6.4,30.33,North,10,3.0,4.0,80,0.00,,CLR,0.00,VWS V14.01,2013-03-02 05:14:00,
2013-03-01 23:15:00,11.2,6.2,30.33,North,10,3.0,4.0,80,0.00,,CLR,0.00,VWS V14.01,2013-03-02 05:15:00,
2013-03-01 23:20:00,11.1,6.2,30.33,North,10,3.0,4.0,80,0.00,,CLR,0.00,VWS V14.01,2013-03-02 05:20:00,
2013-03-01 23:25:00,11.1,6.2,30.33,North,10,3.0,4.0,80,0.00,,CLR,0.00,VWS V14.01,2013-03-02 05:25:00,
2013-03-01 23:30:00,11.1,6.2,30.33,North,10,3.0,5.0,80,0.00,,CLR,0.00,VWS V14.01,2013-03-02 05:30:00,
2013-03-01 23:35:00,10.7,6.0,30.33,North,10,3.0,4.0,81,0.00,,CLR,0.00,VWS V14.01,2013-03-02 05:35:00,
2013-03-01 23:40:00,10.5,5.8,30.33,North,10,3.0,4.0,81,0.00,,CLR,0.00,VWS V14.01,2013-03-02 05:40:00,
2013-03-01 23:45:00,10.4,5.7,30.33,North,10,3.0,4.0,81,0.00,,CLR,0.00,VWS V14.01,2013-03-02 05:45:00,
2013-03-01 23:50:00,10.2,5.5,30.32,North,10,3.0,3.0,81,0.00,,CLR,0.00,VWS V14.01,2013-03-02 05:50:00,
2013-03-01 23:55:00,9.9,5.2,30.32,North,10,2.0,3.0,81,0.00,,CLR,0.00,VWS V14.01,2013-03-02 05:55:00,